sat.trackr.live / text

‹ back to catalog

COSMOS 2507 (RODNIK-S *)

NORAD 40920 · 2015-050A

PAYLOAD ACTIVE UNKNOWN

§ Identity

Operator
Country
CIS
Launch date
2015-09-23
Launch site
PLMSC
Launch vehicle
Mass (kg)
RCS (m²)
1.56

External: N2YO · Heavens-Above · Gunter

§ Orbital elements

Epoch: 2026-05-25T03:07:40.091232Z

Period
115.86 min
Inclination
82.4905°
Eccentricity
0.0011014
Mean motion
12.42926193 rev/d
Perigee alt
1,485.6 km
Apogee alt
1,502.9 km
Semi-major
7,872.4 km
B*
2.3925e-4
RAAN
94.0241°
Arg perigee
43.9144°
Mean anomaly
316.2809°
Rev number
48,399

§ Raw data

COSMOS 2507 (RODNIK-S *)1 40920U 15050A   26145.13032513  .00000043  00000+0  23925-3 0  99922 40920  82.4905  94.0241 0011014  43.9144 316.2809 12.42926193483998

JSON: /api/v1/satellites/40920 · /tle

For live sub-satellite position, see the globe view (requires WebGL).

§ Visibility from observer

Set your observer location to see the next 7 days of passes ≥ 10°. The values pass through the URL so the page stays shareable.

No JS? Fill the form by hand. The geolocation button needs JavaScript.

§ Radio — SatNOGS DB

ModeDescriptionDownlinkUplink
FM UHF Unknown 388.687 MHz

1 transmitter · refreshed weekly from db.satnogs.org